Location: Unspecified
(0.0000°N, 0.0000°E)
Time: 17:50:31
(UTC+00:00)

STARLINK 1060 - Pass Details

Date: 15 January 2020
Orbit: 438 x 440 km, 53.0° (Epoch: 18 January)

Event Time Altitude Azimuth Distance (km) Brightness Sun altitude
Rises 18:27:51 0° 314° (NW) 2,400 7.2 -4.3°
Reaches altitude 10° 18:30:02 10° 307° (NW) 1,535 6.4 -4.8°
Maximum altitude 18:33:17 39° 236° (SW) 664 4.8 -5.6°
Drops below altitude 10° 18:36:33 10° 165° (SSE) 1,541 6.0 -6.3°
Sets 18:38:45 0° 157° (SSE) 2,410 6.9 -6.9°
